Year,Month,Day,Hour,Minute,Value (Times are PST for temperature in C)
2010,11,09,00,00,2.50
2010,11,09,00,01,2.50
2010,11,09,00,02,2.50
2010,11,09,00,03,2.50
2010,11,09,00,04,2.50
2010,11,09,00,05,2.40
2010,11,09,00,06,2.40
2010,11,09,00,07,2.40
2010,11,09,00,08,2.40
2010,11,09,00,09,2.40
2010,11,09,00,10,2.40
2010,11,09,00,11,2.40
2010,11,09,00,12,2.40
2010,11,09,00,13,2.40
2010,11,09,00,14,2.40
2010,11,09,00,15,2.40
2010,11,09,00,16,2.30
2010,11,09,00,17,2.30
2010,11,09,00,18,2.30
2010,11,09,00,19,2.30
2010,11,09,00,20,2.30
2010,11,09,00,21,2.30
2010,11,09,00,22,2.30
2010,11,09,00,23,2.30
2010,11,09,00,24,2.30
2010,11,09,00,25,2.20
2010,11,09,00,26,2.20
2010,11,09,00,27,2.20
2010,11,09,00,28,2.20
2010,11,09,00,29,2.20
2010,11,09,00,30,2.20
2010,11,09,00,31,2.20
2010,11,09,00,32,2.20
2010,11,09,00,33,2.20
2010,11,09,00,34,2.10
2010,11,09,00,35,2.10
2010,11,09,00,36,2.10
2010,11,09,00,37,2.10
2010,11,09,00,38,2.10
2010,11,09,00,39,2.10
2010,11,09,00,40,2.10
2010,11,09,00,41,2.10
2010,11,09,00,42,2.10
2010,11,09,00,43,2.10
2010,11,09,00,44,2.10
2010,11,09,00,45,2.10
2010,11,09,00,46,2.10
2010,11,09,00,47,2.10
2010,11,09,00,48,2.10
2010,11,09,00,49,2.10
2010,11,09,00,50,2.10
2010,11,09,00,51,2.10
2010,11,09,00,52,2.10
2010,11,09,00,53,2.10
2010,11,09,00,54,2.10
2010,11,09,00,55,2.10
2010,11,09,00,56,2.10
2010,11,09,00,57,2.10
2010,11,09,00,58,2.10
2010,11,09,00,59,2.10
2010,11,09,01,00,2.10
2010,11,09,01,01,2.10
2010,11,09,01,02,2.10
2010,11,09,01,03,2.10
2010,11,09,01,04,2.10
2010,11,09,01,05,2.10
2010,11,09,01,06,2.10
2010,11,09,01,07,2.10
2010,11,09,01,08,2.10
2010,11,09,01,09,2.10
2010,11,09,01,10,2.10
2010,11,09,01,11,2.10
2010,11,09,01,12,2.20
2010,11,09,01,13,2.20
2010,11,09,01,14,2.20
2010,11,09,01,15,2.20
2010,11,09,01,16,2.20
2010,11,09,01,17,2.20
2010,11,09,01,18,2.20
2010,11,09,01,19,2.20
2010,11,09,01,20,2.20
2010,11,09,01,21,2.20
2010,11,09,01,22,2.20
2010,11,09,01,23,2.20
2010,11,09,01,24,2.20
2010,11,09,01,25,2.20
2010,11,09,01,26,2.20
2010,11,09,01,27,2.20
2010,11,09,01,28,2.20
2010,11,09,01,29,2.20
2010,11,09,01,30,2.20
2010,11,09,01,31,2.20
2010,11,09,01,32,2.20
2010,11,09,01,33,2.30
2010,11,09,01,34,2.30
2010,11,09,01,35,2.30
2010,11,09,01,36,2.30
2010,11,09,01,37,2.20
2010,11,09,01,38,2.20
2010,11,09,01,39,2.20
2010,11,09,01,40,2.20
2010,11,09,01,41,2.20
2010,11,09,01,42,2.20
2010,11,09,01,43,2.20
2010,11,09,01,44,2.20
2010,11,09,01,45,2.20
2010,11,09,01,46,2.20
2010,11,09,01,47,2.20
2010,11,09,01,48,2.20
2010,11,09,01,49,2.20
2010,11,09,01,50,2.20
2010,11,09,01,51,2.20
2010,11,09,01,52,2.20
2010,11,09,01,53,2.30
2010,11,09,01,54,2.30
2010,11,09,01,55,2.30
2010,11,09,01,56,2.30
2010,11,09,01,57,2.30
2010,11,09,01,58,2.30
2010,11,09,01,59,2.30
2010,11,09,02,00,2.30
2010,11,09,02,01,2.30
2010,11,09,02,02,2.30
2010,11,09,02,03,2.30
2010,11,09,02,04,2.30
2010,11,09,02,05,2.30
2010,11,09,02,06,2.30
2010,11,09,02,07,2.30
2010,11,09,02,08,2.30
2010,11,09,02,09,2.30
2010,11,09,02,10,2.30
2010,11,09,02,11,2.30
2010,11,09,02,12,2.30
2010,11,09,02,13,2.30
2010,11,09,02,14,2.30
2010,11,09,02,15,2.30
2010,11,09,02,16,2.30
2010,11,09,02,17,2.30
2010,11,09,02,18,2.30
2010,11,09,02,19,2.30
2010,11,09,02,20,2.30
2010,11,09,02,21,2.30
2010,11,09,02,22,2.30
2010,11,09,02,23,2.30
2010,11,09,02,24,2.30
2010,11,09,02,25,2.30
2010,11,09,02,26,2.30
2010,11,09,02,27,2.30
2010,11,09,02,28,2.30
2010,11,09,02,29,2.30
2010,11,09,02,30,2.30
2010,11,09,02,31,2.30
2010,11,09,02,32,2.30
2010,11,09,02,33,2.30
2010,11,09,02,34,2.30
2010,11,09,02,35,2.30
2010,11,09,02,36,2.30
2010,11,09,02,37,2.30
2010,11,09,02,38,2.30
2010,11,09,02,39,2.30
2010,11,09,02,40,2.20
2010,11,09,02,41,2.20
2010,11,09,02,42,2.20
2010,11,09,02,43,2.30
2010,11,09,02,44,2.30
2010,11,09,02,45,2.30
2010,11,09,02,46,2.30
2010,11,09,02,47,2.30
2010,11,09,02,48,2.30
2010,11,09,02,49,2.30
2010,11,09,02,50,2.30
2010,11,09,02,51,2.30
2010,11,09,02,52,2.30
2010,11,09,02,53,2.30
2010,11,09,02,54,2.30
2010,11,09,02,55,2.30
2010,11,09,02,56,2.30
2010,11,09,02,57,2.30
2010,11,09,02,58,2.30
2010,11,09,02,59,2.40
2010,11,09,03,00,2.40
2010,11,09,03,01,2.40
2010,11,09,03,02,2.40
2010,11,09,03,03,2.40
2010,11,09,03,04,2.40
2010,11,09,03,05,2.40
2010,11,09,03,06,2.40
2010,11,09,03,07,2.40
2010,11,09,03,08,2.40
2010,11,09,03,09,2.40
2010,11,09,03,10,2.40
2010,11,09,03,11,2.40
2010,11,09,03,12,2.40
2010,11,09,03,13,2.40
2010,11,09,03,14,2.40
2010,11,09,03,15,2.40
2010,11,09,03,16,2.40
2010,11,09,03,17,2.40
2010,11,09,03,18,2.40
2010,11,09,03,19,2.40
2010,11,09,03,20,2.40
2010,11,09,03,21,2.40
2010,11,09,03,22,2.50
2010,11,09,03,23,2.50
2010,11,09,03,24,2.50
2010,11,09,03,25,2.50
2010,11,09,03,26,2.50
2010,11,09,03,27,2.60
2010,11,09,03,28,2.60
2010,11,09,03,29,2.60
2010,11,09,03,30,2.60
2010,11,09,03,31,2.60
2010,11,09,03,32,2.60
2010,11,09,03,33,2.60
2010,11,09,03,34,2.60
2010,11,09,03,35,2.60
2010,11,09,03,36,2.60
2010,11,09,03,37,2.70
2010,11,09,03,38,2.70
2010,11,09,03,39,2.70
2010,11,09,03,40,2.70
2010,11,09,03,41,2.70
2010,11,09,03,42,2.70
2010,11,09,03,43,2.70
2010,11,09,03,44,2.70
2010,11,09,03,45,2.70
2010,11,09,03,46,2.70
2010,11,09,03,47,2.70
2010,11,09,03,48,2.70
2010,11,09,03,49,2.70
2010,11,09,03,50,2.70
2010,11,09,03,51,2.70
2010,11,09,03,52,2.70
2010,11,09,03,53,2.70
2010,11,09,03,54,2.70
2010,11,09,03,55,2.70
2010,11,09,03,56,2.70
2010,11,09,03,57,2.70
2010,11,09,03,58,2.70
2010,11,09,03,59,2.70
2010,11,09,04,00,2.70
2010,11,09,04,01,2.70
2010,11,09,04,02,2.80
2010,11,09,04,03,2.80
2010,11,09,04,04,2.80
2010,11,09,04,05,2.80
2010,11,09,04,06,2.80
2010,11,09,04,07,2.80
2010,11,09,04,08,2.80
2010,11,09,04,09,2.80
2010,11,09,04,10,2.80
2010,11,09,04,11,2.80
2010,11,09,04,12,2.80
2010,11,09,04,13,2.80
2010,11,09,04,14,2.80
2010,11,09,04,15,2.80
2010,11,09,04,16,2.80
2010,11,09,04,17,2.80
2010,11,09,04,18,2.80
2010,11,09,04,19,2.80
2010,11,09,04,20,2.80
2010,11,09,04,21,2.80
2010,11,09,04,22,2.80
2010,11,09,04,23,2.80
2010,11,09,04,24,2.80
2010,11,09,04,25,2.80
2010,11,09,04,26,2.80
2010,11,09,04,27,2.80
2010,11,09,04,28,2.80
2010,11,09,04,29,2.80
2010,11,09,04,30,2.80
2010,11,09,04,31,2.80
2010,11,09,04,32,2.80
2010,11,09,04,33,2.80
2010,11,09,04,34,2.80
2010,11,09,04,35,2.90
2010,11,09,04,36,2.90
2010,11,09,04,37,2.90
2010,11,09,04,38,2.90
2010,11,09,04,39,2.90
2010,11,09,04,40,2.90
2010,11,09,04,41,2.90
2010,11,09,04,42,2.90
2010,11,09,04,43,2.90
2010,11,09,04,44,2.90
2010,11,09,04,45,2.90
2010,11,09,04,46,3.00
2010,11,09,04,47,3.00
2010,11,09,04,48,3.00
2010,11,09,04,49,3.00
2010,11,09,04,50,3.00
2010,11,09,04,51,3.00
2010,11,09,04,52,3.10
2010,11,09,04,53,3.10
2010,11,09,04,54,3.10
2010,11,09,04,55,3.10
2010,11,09,04,56,3.10
2010,11,09,04,57,3.10
2010,11,09,04,58,3.10
2010,11,09,04,59,3.10
2010,11,09,05,00,3.10
2010,11,09,05,01,3.20
2010,11,09,05,02,3.20
2010,11,09,05,03,3.20
2010,11,09,05,04,3.20
2010,11,09,05,05,3.20
2010,11,09,05,06,3.20
2010,11,09,05,07,3.20
2010,11,09,05,08,3.20
2010,11,09,05,09,3.20
2010,11,09,05,10,3.20
2010,11,09,05,11,3.30
2010,11,09,05,12,3.30
2010,11,09,05,13,3.30
2010,11,09,05,14,3.30
2010,11,09,05,15,3.30
2010,11,09,05,16,3.30
2010,11,09,05,17,3.30
2010,11,09,05,18,3.30
2010,11,09,05,19,3.30
2010,11,09,05,20,3.40
2010,11,09,05,21,3.40
2010,11,09,05,22,3.40
2010,11,09,05,23,3.50
2010,11,09,05,24,3.50
2010,11,09,05,25,3.50
2010,11,09,05,26,3.60
2010,11,09,05,27,3.60
2010,11,09,05,28,3.60
2010,11,09,05,29,3.60
2010,11,09,05,30,3.60
2010,11,09,05,31,3.60
2010,11,09,05,32,3.60
2010,11,09,05,33,3.60
2010,11,09,05,34,3.60
2010,11,09,05,35,3.60
2010,11,09,05,36,3.60
2010,11,09,05,37,3.60
2010,11,09,05,38,3.60
2010,11,09,05,39,3.60
2010,11,09,05,40,3.60
2010,11,09,05,41,3.60
2010,11,09,05,42,3.60
2010,11,09,05,43,3.60
2010,11,09,05,44,3.60
2010,11,09,05,45,3.60
2010,11,09,05,46,3.60
2010,11,09,05,47,3.60
2010,11,09,05,48,3.60
2010,11,09,05,49,3.60
2010,11,09,05,50,3.60
2010,11,09,05,51,3.60
2010,11,09,05,52,3.60
2010,11,09,05,53,3.60
2010,11,09,05,54,3.60
2010,11,09,05,55,3.60
2010,11,09,05,56,3.60
2010,11,09,05,57,3.60
2010,11,09,05,58,3.60
2010,11,09,05,59,3.60
2010,11,09,06,00,3.60
2010,11,09,06,01,3.60
2010,11,09,06,02,3.60
2010,11,09,06,03,3.60
2010,11,09,06,04,3.60
2010,11,09,06,05,3.60
2010,11,09,06,06,3.60
2010,11,09,06,07,3.60
2010,11,09,06,08,3.60
2010,11,09,06,09,3.60
2010,11,09,06,10,3.60
2010,11,09,06,11,3.60
2010,11,09,06,12,3.60
2010,11,09,06,13,3.60
2010,11,09,06,14,3.60
2010,11,09,06,15,3.60
2010,11,09,06,16,3.60
2010,11,09,06,17,3.60
2010,11,09,06,18,3.60
2010,11,09,06,19,3.60
2010,11,09,06,20,3.60
2010,11,09,06,21,3.60
2010,11,09,06,22,3.60
2010,11,09,06,23,3.70
2010,11,09,06,24,3.70
2010,11,09,06,25,3.70
2010,11,09,06,26,3.70
2010,11,09,06,27,3.70
2010,11,09,06,28,3.70
2010,11,09,06,29,3.80
2010,11,09,06,30,3.80
2010,11,09,06,31,3.80
2010,11,09,06,32,3.80
2010,11,09,06,33,3.80
2010,11,09,06,34,3.80
2010,11,09,06,35,3.80
2010,11,09,06,36,3.90
2010,11,09,06,37,3.90
2010,11,09,06,38,3.90
2010,11,09,06,39,3.90
2010,11,09,06,40,3.90
2010,11,09,06,41,3.90
2010,11,09,06,42,3.90
2010,11,09,06,43,4.00
2010,11,09,06,44,4.00
2010,11,09,06,45,4.00
2010,11,09,06,46,4.00
2010,11,09,06,47,4.00
2010,11,09,06,48,4.10
2010,11,09,06,49,4.10
2010,11,09,06,50,4.10
2010,11,09,06,51,4.10
2010,11,09,06,52,4.10
2010,11,09,06,53,4.10
2010,11,09,06,54,4.20
2010,11,09,06,55,4.20
2010,11,09,06,56,4.20
2010,11,09,06,57,4.20
2010,11,09,06,58,4.20
2010,11,09,06,59,4.20
2010,11,09,07,00,4.20
2010,11,09,07,01,4.20
2010,11,09,07,02,4.20
2010,11,09,07,03,4.20
2010,11,09,07,04,4.20
2010,11,09,07,05,4.20
2010,11,09,07,06,4.20
2010,11,09,07,07,4.20
2010,11,09,07,08,4.20
2010,11,09,07,09,4.30
2010,11,09,07,10,4.30
2010,11,09,07,11,4.30
2010,11,09,07,12,4.30
2010,11,09,07,13,4.30
2010,11,09,07,14,4.30
2010,11,09,07,15,4.30
2010,11,09,07,16,4.40
2010,11,09,07,17,4.40
2010,11,09,07,18,4.40
2010,11,09,07,19,4.40
2010,11,09,07,20,4.40
2010,11,09,07,21,4.40
2010,11,09,07,22,4.50
2010,11,09,07,23,4.50
2010,11,09,07,24,4.50
2010,11,09,07,25,4.50
2010,11,09,07,26,4.60
2010,11,09,07,27,4.70
2010,11,09,07,28,4.80
2010,11,09,07,29,4.90
2010,11,09,07,30,4.90
2010,11,09,07,31,5.00
2010,11,09,07,32,5.10
2010,11,09,07,33,5.10
2010,11,09,07,34,5.20
2010,11,09,07,35,5.20
2010,11,09,07,36,5.30
2010,11,09,07,37,5.30
2010,11,09,07,38,5.30
2010,11,09,07,39,5.40
2010,11,09,07,40,5.50
2010,11,09,07,41,5.50
2010,11,09,07,42,5.60
2010,11,09,07,43,5.60
2010,11,09,07,44,5.70
2010,11,09,07,45,5.80
2010,11,09,07,46,5.80
2010,11,09,07,47,5.90
2010,11,09,07,48,6.00
2010,11,09,07,49,6.10
2010,11,09,07,50,6.10
2010,11,09,07,51,6.30
2010,11,09,07,52,6.40
2010,11,09,07,53,6.50
2010,11,09,07,54,6.60
2010,11,09,07,55,6.80
2010,11,09,07,56,6.90
2010,11,09,07,57,7.00
2010,11,09,07,58,7.10
2010,11,09,07,59,7.10
2010,11,09,08,00,7.20
2010,11,09,08,01,7.20
2010,11,09,08,02,7.20
2010,11,09,08,03,7.20
2010,11,09,08,04,7.30
2010,11,09,08,05,7.30
2010,11,09,08,06,7.30
2010,11,09,08,07,7.40
2010,11,09,08,08,7.40
2010,11,09,08,09,7.40
2010,11,09,08,10,7.40
2010,11,09,08,11,7.50
2010,11,09,08,12,7.50
2010,11,09,08,13,7.50
2010,11,09,08,14,7.50
2010,11,09,08,15,7.50
2010,11,09,08,16,7.50
2010,11,09,08,17,7.50
2010,11,09,08,18,7.50
2010,11,09,08,19,7.50
2010,11,09,08,20,7.50
2010,11,09,08,21,7.50
2010,11,09,08,22,7.50
2010,11,09,08,23,7.50
2010,11,09,08,24,7.50
2010,11,09,08,25,7.40
2010,11,09,08,26,7.50
2010,11,09,08,27,7.50
2010,11,09,08,28,7.50
2010,11,09,08,29,7.40
2010,11,09,08,30,7.40
2010,11,09,08,31,7.40
2010,11,09,08,32,7.40
2010,11,09,08,33,7.40
2010,11,09,08,34,7.40
2010,11,09,08,35,7.40
2010,11,09,08,36,7.40
2010,11,09,08,37,7.40
2010,11,09,08,38,7.40
2010,11,09,08,39,7.40
2010,11,09,08,40,7.40
2010,11,09,08,41,7.40
2010,11,09,08,42,7.40
2010,11,09,08,43,7.40
2010,11,09,08,44,7.40
2010,11,09,08,45,7.40
2010,11,09,08,46,7.40
2010,11,09,08,47,7.40
2010,11,09,08,48,7.40
2010,11,09,08,49,7.40
2010,11,09,08,50,7.40
2010,11,09,08,51,7.40
2010,11,09,08,52,7.40
2010,11,09,08,53,7.40
2010,11,09,08,54,7.40
2010,11,09,08,55,7.40
2010,11,09,08,56,7.40
2010,11,09,08,57,7.40
2010,11,09,08,58,7.50
2010,11,09,08,59,7.50
2010,11,09,09,00,7.50
2010,11,09,09,01,7.50
2010,11,09,09,02,7.50
2010,11,09,09,03,7.50
2010,11,09,09,04,7.60
2010,11,09,09,05,7.60
2010,11,09,09,06,7.60
2010,11,09,09,07,7.60
2010,11,09,09,08,7.60
2010,11,09,09,09,7.60
2010,11,09,09,10,7.60
2010,11,09,09,11,7.70
2010,11,09,09,12,7.70
2010,11,09,09,13,7.60
2010,11,09,09,14,7.60
2010,11,09,09,15,7.60
2010,11,09,09,16,7.60
2010,11,09,09,17,7.60
2010,11,09,09,18,7.60
2010,11,09,09,19,7.60
2010,11,09,09,20,7.50
2010,11,09,09,21,7.50
2010,11,09,09,22,7.40
2010,11,09,09,23,7.40
2010,11,09,09,24,7.40
2010,11,09,09,25,7.40
2010,11,09,09,26,7.40
2010,11,09,09,27,7.40
2010,11,09,09,28,7.30
2010,11,09,09,29,7.30
2010,11,09,09,30,7.30
2010,11,09,09,31,7.30
2010,11,09,09,32,7.30
2010,11,09,09,33,7.20
2010,11,09,09,34,7.20
2010,11,09,09,35,7.20
2010,11,09,09,36,7.20
2010,11,09,09,37,7.20
2010,11,09,09,38,7.20
2010,11,09,09,39,7.20
2010,11,09,09,40,7.20
2010,11,09,09,41,7.20
2010,11,09,09,42,7.20
2010,11,09,09,43,7.20
2010,11,09,09,44,7.20
2010,11,09,09,45,7.20
2010,11,09,09,46,7.20
2010,11,09,09,47,7.20
2010,11,09,09,48,7.30
2010,11,09,09,49,7.30
2010,11,09,09,50,7.40
2010,11,09,09,51,7.40
2010,11,09,09,52,7.40
2010,11,09,09,53,7.40
2010,11,09,09,54,7.40
2010,11,09,09,55,7.40
2010,11,09,09,56,7.40
2010,11,09,09,57,7.40
2010,11,09,09,58,7.40
2010,11,09,09,59,7.40
2010,11,09,10,00,7.40
2010,11,09,10,01,7.30
2010,11,09,10,02,7.30
2010,11,09,10,03,7.40
2010,11,09,10,04,7.40
2010,11,09,10,05,7.40
2010,11,09,10,06,7.40
2010,11,09,10,07,7.40
2010,11,09,10,08,7.30
2010,11,09,10,09,7.30
2010,11,09,10,10,7.30
2010,11,09,10,11,7.30
2010,11,09,10,12,7.30
2010,11,09,10,13,7.30
2010,11,09,10,14,7.20
2010,11,09,10,15,7.20
2010,11,09,10,16,7.20
2010,11,09,10,17,7.20
2010,11,09,10,18,7.20
2010,11,09,10,19,7.10
2010,11,09,10,20,7.10
2010,11,09,10,21,7.10
2010,11,09,10,22,7.10
2010,11,09,10,23,7.10
2010,11,09,10,24,7.10
2010,11,09,10,25,7.10
2010,11,09,10,26,7.10
2010,11,09,10,27,7.10
2010,11,09,10,28,7.10
2010,11,09,10,29,7.10
2010,11,09,10,30,7.10
2010,11,09,10,31,7.10
2010,11,09,10,32,7.10
2010,11,09,10,33,7.10
2010,11,09,10,34,7.10
2010,11,09,10,35,7.00
2010,11,09,10,36,7.00
2010,11,09,10,37,7.00
2010,11,09,10,38,7.00
2010,11,09,10,39,7.00
2010,11,09,10,40,7.00
2010,11,09,10,41,7.00
2010,11,09,10,42,7.10
2010,11,09,10,43,7.10
2010,11,09,10,44,7.10
2010,11,09,10,45,7.10
2010,11,09,10,46,7.00
2010,11,09,10,47,7.00
2010,11,09,10,48,7.00
2010,11,09,10,49,7.00
2010,11,09,10,50,7.00
2010,11,09,10,51,7.00
2010,11,09,10,52,7.00
2010,11,09,10,53,7.00
2010,11,09,10,54,7.10
2010,11,09,10,55,7.10
2010,11,09,10,56,7.10
2010,11,09,10,57,7.10
2010,11,09,10,58,7.20
2010,11,09,10,59,7.20
2010,11,09,11,00,7.20
2010,11,09,11,01,7.20
2010,11,09,11,02,7.20
2010,11,09,11,03,7.20
2010,11,09,11,04,7.20
2010,11,09,11,05,7.20
2010,11,09,11,06,7.20
2010,11,09,11,07,7.20
2010,11,09,11,08,7.20
2010,11,09,11,09,7.20
2010,11,09,11,10,7.20
2010,11,09,11,11,7.20
2010,11,09,11,12,7.20
2010,11,09,11,13,7.20
2010,11,09,11,14,7.20
2010,11,09,11,15,7.30
2010,11,09,11,16,7.30
2010,11,09,11,17,7.30
2010,11,09,11,18,7.30
2010,11,09,11,19,7.30
2010,11,09,11,20,7.30
2010,11,09,11,21,7.30
2010,11,09,11,22,7.30
2010,11,09,11,23,7.30
2010,11,09,11,24,7.30
2010,11,09,11,25,7.30
2010,11,09,11,26,7.30
2010,11,09,11,27,7.30
2010,11,09,11,28,7.40
2010,11,09,11,29,7.40
2010,11,09,11,30,7.40
2010,11,09,11,31,7.40
2010,11,09,11,32,7.40
2010,11,09,11,33,7.50
2010,11,09,11,34,7.50
2010,11,09,11,35,7.50
2010,11,09,11,36,7.50
2010,11,09,11,37,7.50
2010,11,09,11,38,7.60
2010,11,09,11,39,7.60
2010,11,09,11,40,7.60
2010,11,09,11,41,7.60
2010,11,09,11,42,7.60
2010,11,09,11,43,7.60
2010,11,09,11,44,7.70
2010,11,09,11,45,7.70
2010,11,09,11,46,7.70
2010,11,09,11,47,7.70
2010,11,09,11,48,7.80
2010,11,09,11,49,7.80
2010,11,09,11,50,7.80
2010,11,09,11,51,7.80
2010,11,09,11,52,7.80
2010,11,09,11,53,7.90
2010,11,09,11,54,7.90
2010,11,09,11,55,7.90
2010,11,09,11,56,7.90
2010,11,09,11,57,7.90
2010,11,09,11,58,7.90
2010,11,09,11,59,7.90
2010,11,09,12,00,7.90
2010,11,09,12,01,7.90
2010,11,09,12,02,7.90
2010,11,09,12,03,7.90
2010,11,09,12,04,7.90
2010,11,09,12,05,7.90
2010,11,09,12,06,7.90
2010,11,09,12,07,7.90
2010,11,09,12,08,7.90
2010,11,09,12,09,7.80
2010,11,09,12,10,7.80
2010,11,09,12,11,7.80
2010,11,09,12,12,7.80
2010,11,09,12,13,7.80
2010,11,09,12,14,7.80
2010,11,09,12,15,7.80
2010,11,09,12,16,7.80
2010,11,09,12,17,7.80
2010,11,09,12,18,7.80
2010,11,09,12,19,7.80
2010,11,09,12,20,7.80
2010,11,09,12,21,7.80
2010,11,09,12,22,7.80
2010,11,09,12,23,7.80
2010,11,09,12,24,7.90
2010,11,09,12,25,7.90
2010,11,09,12,26,7.90
2010,11,09,12,27,7.80
2010,11,09,12,28,7.80
2010,11,09,12,29,7.80
2010,11,09,12,30,7.80
2010,11,09,12,31,7.80
2010,11,09,12,32,7.80
2010,11,09,12,33,7.80
2010,11,09,12,34,7.70
2010,11,09,12,35,7.70
2010,11,09,12,36,7.70
2010,11,09,12,37,7.70
2010,11,09,12,38,7.60
2010,11,09,12,39,7.60
2010,11,09,12,40,7.60
2010,11,09,12,41,7.50
2010,11,09,12,42,7.50
2010,11,09,12,43,7.50
2010,11,09,12,44,7.40
2010,11,09,12,45,7.40
2010,11,09,12,46,7.40
2010,11,09,12,47,7.40
2010,11,09,12,48,7.30
2010,11,09,12,49,7.30
2010,11,09,12,50,7.30
2010,11,09,12,51,7.30
2010,11,09,12,52,7.30
2010,11,09,12,53,7.30
2010,11,09,12,54,7.20
2010,11,09,12,55,7.20
2010,11,09,12,56,7.20
2010,11,09,12,57,7.20
2010,11,09,12,58,7.20
2010,11,09,12,59,7.20
2010,11,09,13,00,7.20
2010,11,09,13,01,7.20
2010,11,09,13,02,7.20
2010,11,09,13,03,7.20
2010,11,09,13,04,7.20
2010,11,09,13,05,7.20
2010,11,09,13,06,7.20
2010,11,09,13,07,7.20
2010,11,09,13,08,7.20
2010,11,09,13,09,7.10
2010,11,09,13,10,7.10
2010,11,09,13,11,7.10
2010,11,09,13,12,7.10
2010,11,09,13,13,7.10
2010,11,09,13,14,7.10
2010,11,09,13,15,7.10
2010,11,09,13,16,7.10
2010,11,09,13,17,7.10
2010,11,09,13,18,7.10
2010,11,09,13,19,7.10
2010,11,09,13,20,7.00
2010,11,09,13,21,7.00
2010,11,09,13,22,7.00
2010,11,09,13,23,6.90
2010,11,09,13,24,6.90
2010,11,09,13,25,6.90
2010,11,09,13,26,6.90
2010,11,09,13,27,6.90
2010,11,09,13,28,6.90
2010,11,09,13,29,6.80
2010,11,09,13,30,6.80
2010,11,09,13,31,6.80
2010,11,09,13,32,6.80
2010,11,09,13,33,6.80
2010,11,09,13,34,6.80
2010,11,09,13,35,6.80
2010,11,09,13,36,6.80
2010,11,09,13,37,6.70
2010,11,09,13,38,6.70
2010,11,09,13,39,6.70
2010,11,09,13,40,6.70
2010,11,09,13,41,6.70
2010,11,09,13,42,6.70
2010,11,09,13,43,6.70
2010,11,09,13,44,6.70
2010,11,09,13,45,6.70
2010,11,09,13,46,6.70
2010,11,09,13,47,6.70
2010,11,09,13,48,6.60
2010,11,09,13,49,6.60
2010,11,09,13,50,6.60
2010,11,09,13,51,6.60
2010,11,09,13,52,6.60
2010,11,09,13,53,6.60
2010,11,09,13,54,6.60
2010,11,09,13,55,6.60
2010,11,09,13,56,6.60
2010,11,09,13,57,6.60
2010,11,09,13,58,6.50
2010,11,09,13,59,6.50
2010,11,09,14,00,6.50
2010,11,09,14,01,6.50
2010,11,09,14,02,6.50
2010,11,09,14,03,6.50
2010,11,09,14,04,6.40
2010,11,09,14,05,6.40
2010,11,09,14,06,6.40
2010,11,09,14,07,6.40
2010,11,09,14,08,6.40
2010,11,09,14,09,6.40
2010,11,09,14,10,6.40
2010,11,09,14,11,6.40
2010,11,09,14,12,6.40
2010,11,09,14,13,6.40
2010,11,09,14,14,6.40
2010,11,09,14,15,6.40
2010,11,09,14,16,6.40
2010,11,09,14,17,6.40
2010,11,09,14,18,6.40
2010,11,09,14,19,6.40
2010,11,09,14,20,6.40
2010,11,09,14,21,6.40
2010,11,09,14,22,6.40
2010,11,09,14,23,6.40
2010,11,09,14,24,6.40
2010,11,09,14,25,6.40
2010,11,09,14,26,6.40
2010,11,09,14,27,6.40
2010,11,09,14,28,6.40
2010,11,09,14,29,6.40
2010,11,09,14,30,6.40
2010,11,09,14,31,6.40
2010,11,09,14,32,6.40
2010,11,09,14,33,6.40
2010,11,09,14,34,6.30
2010,11,09,14,35,6.30
2010,11,09,14,36,6.30
2010,11,09,14,37,6.30
2010,11,09,14,38,6.30
2010,11,09,14,39,6.30
2010,11,09,14,40,6.30
2010,11,09,14,41,6.30
2010,11,09,14,42,6.30
2010,11,09,14,43,6.30
2010,11,09,14,44,6.30
2010,11,09,14,45,6.30
2010,11,09,14,46,6.30
2010,11,09,14,47,6.30
2010,11,09,14,48,6.30
2010,11,09,14,49,6.30
2010,11,09,14,50,6.30
2010,11,09,14,51,6.30
2010,11,09,14,52,6.30
2010,11,09,14,53,6.30
2010,11,09,14,54,6.30
2010,11,09,14,55,6.30
2010,11,09,14,56,6.30
2010,11,09,14,57,6.40
2010,11,09,14,58,6.30
2010,11,09,14,59,6.30
2010,11,09,15,00,6.30
2010,11,09,15,01,6.30
2010,11,09,15,02,6.30
2010,11,09,15,03,6.30
2010,11,09,15,04,6.30
2010,11,09,15,05,6.30
2010,11,09,15,06,6.30
2010,11,09,15,07,6.30
2010,11,09,15,08,6.30
2010,11,09,15,09,6.30
2010,11,09,15,10,6.30
2010,11,09,15,11,6.40
2010,11,09,15,12,6.40
2010,11,09,15,13,6.40
2010,11,09,15,14,6.40
2010,11,09,15,15,6.40
2010,11,09,15,16,6.40
2010,11,09,15,17,6.40
2010,11,09,15,18,6.40
2010,11,09,15,19,6.40
2010,11,09,15,20,6.40
2010,11,09,15,21,6.40
2010,11,09,15,22,6.40
2010,11,09,15,23,6.40
2010,11,09,15,24,6.40
2010,11,09,15,25,6.40
2010,11,09,15,26,6.40
2010,11,09,15,27,6.40
2010,11,09,15,28,6.50
2010,11,09,15,29,6.50
2010,11,09,15,30,6.50
2010,11,09,15,31,6.50
2010,11,09,15,32,6.50
2010,11,09,15,33,6.50
2010,11,09,15,34,6.50
2010,11,09,15,35,6.60
2010,11,09,15,36,6.60
2010,11,09,15,37,6.60
2010,11,09,15,38,6.60
2010,11,09,15,39,6.60
2010,11,09,15,40,6.60
2010,11,09,15,41,6.60
2010,11,09,15,42,6.60
2010,11,09,15,43,6.60
2010,11,09,15,44,6.60
2010,11,09,15,45,6.60
2010,11,09,15,46,6.60
2010,11,09,15,47,6.60
2010,11,09,15,48,6.60
2010,11,09,15,49,6.60
2010,11,09,15,50,6.60
2010,11,09,15,51,6.50
2010,11,09,15,52,6.50
2010,11,09,15,53,6.50
2010,11,09,15,54,6.50
2010,11,09,15,55,6.50
2010,11,09,15,56,6.50
2010,11,09,15,57,6.50
2010,11,09,15,58,6.50
2010,11,09,15,59,6.50
2010,11,09,16,00,6.50
2010,11,09,16,01,6.50
2010,11,09,16,02,6.60
2010,11,09,16,03,6.60
2010,11,09,16,04,6.60
2010,11,09,16,05,6.60
2010,11,09,16,06,6.60
2010,11,09,16,07,6.60
2010,11,09,16,08,6.60
2010,11,09,16,09,6.70
2010,11,09,16,10,6.70
2010,11,09,16,11,6.70
2010,11,09,16,12,6.70
2010,11,09,16,13,6.70
2010,11,09,16,14,6.70
2010,11,09,16,15,6.70
2010,11,09,16,16,6.70
2010,11,09,16,17,6.70
2010,11,09,16,18,6.70
2010,11,09,16,19,6.60
2010,11,09,16,20,6.60
2010,11,09,16,21,6.60
2010,11,09,16,22,6.60
2010,11,09,16,23,6.60
2010,11,09,16,24,6.60
2010,11,09,16,25,6.60
2010,11,09,16,26,6.60
2010,11,09,16,27,6.60
2010,11,09,16,28,6.60
2010,11,09,16,29,6.60
2010,11,09,16,30,6.60
2010,11,09,16,31,6.60
2010,11,09,16,32,6.60
2010,11,09,16,33,6.60
2010,11,09,16,34,6.60
2010,11,09,16,35,6.60
2010,11,09,16,36,6.60
2010,11,09,16,37,6.60
2010,11,09,16,38,6.60
2010,11,09,16,39,6.60
2010,11,09,16,40,6.60
2010,11,09,16,41,6.60
2010,11,09,16,42,6.60
2010,11,09,16,43,6.50
2010,11,09,16,44,6.50
2010,11,09,16,45,6.60
2010,11,09,16,46,6.50
2010,11,09,16,47,6.50
2010,11,09,16,48,6.50
2010,11,09,16,49,6.50
2010,11,09,16,50,6.50
2010,11,09,16,51,6.50
2010,11,09,16,52,6.50
2010,11,09,16,53,6.50
2010,11,09,16,54,6.50
2010,11,09,16,55,6.50
2010,11,09,16,56,6.50
2010,11,09,16,57,6.50
2010,11,09,16,58,6.50
2010,11,09,16,59,6.50
2010,11,09,17,00,6.50
2010,11,09,17,01,6.50
2010,11,09,17,02,6.50
2010,11,09,17,03,6.50
2010,11,09,17,04,6.50
2010,11,09,17,05,6.50
2010,11,09,17,06,6.50
2010,11,09,17,07,6.50
2010,11,09,17,08,6.50
2010,11,09,17,09,6.50
2010,11,09,17,10,6.50
2010,11,09,17,11,6.50
2010,11,09,17,12,6.50
2010,11,09,17,13,6.50
2010,11,09,17,14,6.50
2010,11,09,17,15,6.50
2010,11,09,17,16,6.40
2010,11,09,17,17,6.50
2010,11,09,17,18,6.50
2010,11,09,17,19,6.40
2010,11,09,17,20,6.40
2010,11,09,17,21,6.40
2010,11,09,17,22,6.40
2010,11,09,17,23,6.40
2010,11,09,17,24,6.40
2010,11,09,17,25,6.40
2010,11,09,17,26,6.40
2010,11,09,17,27,6.40
2010,11,09,17,28,6.40
2010,11,09,17,29,6.40
2010,11,09,17,30,6.40
2010,11,09,17,31,6.40
2010,11,09,17,32,6.40
2010,11,09,17,33,6.40
2010,11,09,17,34,6.40
2010,11,09,17,35,6.40
2010,11,09,17,36,6.40
2010,11,09,17,37,6.40
2010,11,09,17,38,6.40
2010,11,09,17,39,6.40
2010,11,09,17,40,6.40
2010,11,09,17,41,6.40
2010,11,09,17,42,6.40
2010,11,09,17,43,6.40
2010,11,09,17,44,6.40
2010,11,09,17,45,6.40
2010,11,09,17,46,6.40
2010,11,09,17,47,6.40
2010,11,09,17,48,6.40
2010,11,09,17,49,6.40
2010,11,09,17,50,6.40
2010,11,09,17,51,6.40
2010,11,09,17,52,6.40
2010,11,09,17,53,6.40
2010,11,09,17,54,6.40
2010,11,09,17,55,6.40
2010,11,09,17,56,6.40
2010,11,09,17,57,6.40
2010,11,09,17,58,6.40
2010,11,09,17,59,6.40
2010,11,09,18,00,6.40
2010,11,09,18,01,6.40
2010,11,09,18,02,6.40
2010,11,09,18,03,6.40
2010,11,09,18,04,6.40
2010,11,09,18,05,6.40
2010,11,09,18,06,6.40